Time,TemperatureF,DewpointF,PressureIn,WindDirection,WindDirectionDegrees,WindSpeedMPH,WindSpeedGustMPH,Humidity,HourlyPrecipIn,Conditions,Clouds,dailyrainin,SoftwareType,DateUTC
2013-07-13 00:09:00,55.9,52.0,30.20,SSE,149,0.0,0.0,87,0.00,,,0.00,weatherlink.com 1.10,2013-07-13 04:09:00,
2013-07-13 00:24:00,55.2,51.0,30.20,SSE,149,0.0,0.0,87,0.00,,,0.00,weatherlink.com 1.10,2013-07-13 04:24:00,
2013-07-13 00:39:00,54.8,51.0,30.20,SSE,149,0.0,0.0,87,0.00,,,0.00,weatherlink.com 1.10,2013-07-13 04:39:00,
2013-07-13 00:54:00,55.1,51.0,30.19,SE,143,0.0,3.0,87,0.00,,,0.00,weatherlink.com 1.10,2013-07-13 04:54:00,
2013-07-13 01:09:00,54.4,51.0,30.20,SE,143,0.0,0.0,87,0.00,,,0.00,weatherlink.com 1.10,2013-07-13 05:09:00,
2013-07-13 01:24:00,53.9,50.0,30.20,SE,143,0.0,0.0,87,0.00,,,0.00,weatherlink.com 1.10,2013-07-13 05:24:00,
2013-07-13 01:39:00,53.3,50.0,30.20,SE,143,0.0,0.0,87,0.00,,,0.00,weatherlink.com 1.10,2013-07-13 05:39:00,
2013-07-13 01:54:00,53.1,50.0,30.20,SE,143,0.0,0.0,88,0.00,,,0.00,weatherlink.com 1.10,2013-07-13 05:54:00,
2013-07-13 02:09:00,52.7,49.0,30.20,SE,143,0.0,1.0,88,0.00,,,0.00,weatherlink.com 1.10,2013-07-13 06:09:00,
2013-07-13 02:24:00,52.1,49.0,30.20,SE,143,0.0,0.0,88,0.00,,,0.00,weatherlink.com 1.10,2013-07-13 06:24:00,
2013-07-13 02:39:00,51.9,49.0,30.20,SE,143,0.0,0.0,88,0.00,,,0.00,weatherlink.com 1.10,2013-07-13 06:39:00,
2013-07-13 02:54:00,52.1,49.0,30.21,SE,143,0.0,0.0,88,0.00,,,0.00,weatherlink.com 1.10,2013-07-13 06:54:00,
2013-07-13 03:09:00,51.5,48.0,30.21,SE,143,0.0,0.0,88,0.00,,,0.00,weatherlink.com 1.10,2013-07-13 07:09:00,
2013-07-13 03:24:00,52.3,49.0,30.20,SE,143,0.0,3.0,88,0.00,,,0.00,weatherlink.com 1.10,2013-07-13 07:24:00,
2013-07-13 03:39:00,54.1,51.0,30.21,ESE,113,0.0,3.0,89,0.00,,,0.00,weatherlink.com 1.10,2013-07-13 07:39:00,
2013-07-13 03:54:00,53.9,51.0,30.20,ESE,113,0.0,1.0,88,0.00,,,0.00,weatherlink.com 1.10,2013-07-13 07:54:00,
2013-07-13 04:09:00,55.4,52.0,30.21,East,94,0.0,2.0,88,0.00,,,0.00,weatherlink.com 1.10,2013-07-13 08:09:00,
2013-07-13 04:24:00,55.6,52.0,30.21,East,94,0.0,3.0,88,0.00,,,0.00,weatherlink.com 1.10,2013-07-13 08:24:00,
2013-07-13 04:39:00,54.9,52.0,30.22,East,94,0.0,2.0,88,0.00,,,0.00,weatherlink.com 1.10,2013-07-13 08:39:00,
2013-07-13 04:54:00,53.3,50.0,30.23,East,94,0.0,2.0,88,0.00,,,0.00,weatherlink.com 1.10,2013-07-13 08:54:00,
2013-07-13 05:09:00,52.0,49.0,30.23,NE,37,0.0,3.0,88,0.00,,,0.00,weatherlink.com 1.10,2013-07-13 09:09:00,
2013-07-13 05:24:00,51.4,48.0,30.23,NE,37,0.0,1.0,88,0.00,,,0.00,weatherlink.com 1.10,2013-07-13 09:24:00,
2013-07-13 05:39:00,51.2,48.0,30.23,NE,37,0.0,0.0,88,0.00,,,0.00,weatherlink.com 1.10,2013-07-13 09:39:00,
2013-07-13 05:54:00,50.9,48.0,30.23,NE,37,0.0,1.0,88,0.00,,,0.00,weatherlink.com 1.10,2013-07-13 09:54:00,
2013-07-13 06:09:00,51.4,48.0,30.23,NE,38,0.0,1.0,88,0.00,,,0.00,weatherlink.com 1.10,2013-07-13 10:09:00,
2013-07-13 06:24:00,51.9,49.0,30.23,NE,38,0.0,2.0,88,0.00,,,0.00,weatherlink.com 1.10,2013-07-13 10:24:00,
2013-07-13 06:39:00,52.0,49.0,30.23,NE,38,0.0,0.0,88,0.00,,,0.00,weatherlink.com 1.10,2013-07-13 10:39:00,
2013-07-13 06:54:00,54.2,51.0,30.23,NE,38,0.0,1.0,89,0.00,,,0.00,weatherlink.com 1.10,2013-07-13 10:54:00,
2013-07-13 07:09:00,57.1,54.0,30.23,East,89,0.0,4.0,89,0.00,,,0.00,weatherlink.com 1.10,2013-07-13 11:09:00,
2013-07-13 07:24:00,58.9,55.0,30.23,ENE,76,1.0,4.0,88,0.00,,,0.00,weatherlink.com 1.10,2013-07-13 11:24:00,
2013-07-13 07:39:00,61.2,58.0,30.23,East,79,1.0,2.0,88,0.00,,,0.00,weatherlink.com 1.10,2013-07-13 11:39:00,
2013-07-13 07:54:00,63.3,59.0,30.23,East,79,0.0,3.0,87,0.00,,,0.00,weatherlink.com 1.10,2013-07-13 11:54:00,
2013-07-13 08:09:00,64.4,60.0,30.24,SSE,150,0.0,6.0,86,0.00,,,0.00,weatherlink.com 1.10,2013-07-13 12:09:00,
2013-07-13 08:24:00,65.4,61.0,30.25,East,94,2.0,9.0,85,0.00,,,0.00,weatherlink.com 1.10,2013-07-13 12:24:00,
2013-07-13 08:39:00,65.9,61.0,30.25,SE,130,2.0,6.0,85,0.00,,,0.00,weatherlink.com 1.10,2013-07-13 12:39:00,
2013-07-13 08:54:00,67.1,62.0,30.26,South,175,3.0,7.0,84,0.00,,,0.00,weatherlink.com 1.10,2013-07-13 12:54:00,
2013-07-13 09:09:00,67.1,62.0,30.26,SSE,158,2.0,6.0,84,0.00,,,0.00,weatherlink.com 1.10,2013-07-13 13:09:00,
2013-07-13 09:24:00,67.6,62.0,30.26,SE,143,4.0,7.0,83,0.00,,,0.00,weatherlink.com 1.10,2013-07-13 13:24:00,
2013-07-13 09:39:00,68.1,62.0,30.26,SSE,161,2.0,8.0,82,0.00,,,0.00,weatherlink.com 1.10,2013-07-13 13:39:00,
2013-07-13 09:54:00,68.5,62.0,30.26,ESE,111,5.0,8.0,79,0.00,,,0.00,weatherlink.com 1.10,2013-07-13 13:54:00,
2013-07-13 10:09:00,68.7,62.0,30.25,South,176,3.0,6.0,78,0.00,,,0.00,weatherlink.com 1.10,2013-07-13 14:09:00,
2013-07-13 10:24:00,69.1,62.0,30.25,East,98,6.0,7.0,77,0.00,,,0.00,weatherlink.com 1.10,2013-07-13 14:24:00,
2013-07-13 10:39:00,69.2,62.0,30.24,SSE,148,6.0,7.0,78,0.00,,,0.00,weatherlink.com 1.10,2013-07-13 14:39:00,
2013-07-13 10:54:00,69.8,62.0,30.25,SSE,166,3.0,7.0,75,0.00,,,0.00,weatherlink.com 1.10,2013-07-13 14:54:00,
2013-07-13 11:09:00,70.7,64.0,30.24,SSE,163,3.0,8.0,79,0.00,,,0.00,weatherlink.com 1.10,2013-07-13 15:09:00,
2013-07-13 11:25:00,71.3,63.0,30.25,SSE,159,5.0,7.0,75,0.00,,,0.00,weatherlink.com 1.10,2013-07-13 15:25:00,
2013-07-13 11:40:00,71.0,64.0,30.25,SSW,211,4.0,10.0,78,0.00,,,0.00,weatherlink.com 1.10,2013-07-13 15:40:00,
2013-07-13 11:55:00,71.0,63.0,30.25,South,191,2.0,9.0,77,0.00,,,0.00,weatherlink.com 1.10,2013-07-13 15:55:00,
2013-07-13 12:10:00,71.3,62.0,30.25,SSW,196,7.0,8.0,73,0.00,,,0.00,weatherlink.com 1.10,2013-07-13 16:10:00,
2013-07-13 12:25:00,72.8,63.0,30.25,SSE,161,2.0,7.0,71,0.00,,,0.00,weatherlink.com 1.10,2013-07-13 16:25:00,
2013-07-13 12:40:00,73.0,63.0,30.25,South,174,5.0,8.0,71,0.00,,,0.00,weatherlink.com 1.10,2013-07-13 16:40:00,
2013-07-13 12:55:00,73.2,63.0,30.26,SE,140,3.0,9.0,71,0.00,,,0.00,weatherlink.com 1.10,2013-07-13 16:55:00,
2013-07-13 13:10:00,73.2,64.0,30.26,South,185,6.0,10.0,73,0.00,,,0.00,weatherlink.com 1.10,2013-07-13 17:10:00,
2013-07-13 13:25:00,74.3,64.0,30.25,South,177,7.0,9.0,70,0.00,,,0.00,weatherlink.com 1.10,2013-07-13 17:25:00,
2013-07-13 13:40:00,74.4,64.0,30.25,SE,140,4.0,8.0,69,0.00,,,0.00,weatherlink.com 1.10,2013-07-13 17:40:00,
2013-07-13 13:55:00,74.1,63.0,30.25,South,184,6.0,11.0,69,0.00,,,0.00,weatherlink.com 1.10,2013-07-13 17:55:00,
2013-07-13 14:10:00,74.4,64.0,30.25,SSE,166,2.0,12.0,71,0.00,,,0.00,weatherlink.com 1.10,2013-07-13 18:10:00,
2013-07-13 14:25:00,74.9,65.0,30.25,South,177,3.0,12.0,71,0.00,,,0.00,weatherlink.com 1.10,2013-07-13 18:25:00,
2013-07-13 14:40:00,75.8,64.0,30.25,SSE,167,6.0,8.0,67,0.00,,,0.00,weatherlink.com 1.10,2013-07-13 18:40:00,
2013-07-13 14:55:00,76.1,64.0,30.24,SSE,154,4.0,10.0,66,0.00,,,0.00,weatherlink.com 1.10,2013-07-13 18:55:00,
2013-07-13 15:10:00,76.3,64.0,30.24,SSE,166,4.0,9.0,65,0.00,,,0.00,weatherlink.com 1.10,2013-07-13 19:10:00,
2013-07-13 15:25:00,77.4,64.0,30.24,South,173,3.0,10.0,64,0.00,,,0.00,weatherlink.com 1.10,2013-07-13 19:25:00,
2013-07-13 15:40:00,76.8,64.0,30.24,SSW,195,5.0,8.0,64,0.00,,,0.00,weatherlink.com 1.10,2013-07-13 19:40:00,
2013-07-13 15:55:00,77.0,62.0,30.24,South,169,0.0,10.0,60,0.00,,,0.00,weatherlink.com 1.10,2013-07-13 19:55:00,
2013-07-13 16:10:00,76.9,63.0,30.24,South,173,3.0,10.0,62,0.00,,,0.00,weatherlink.com 1.10,2013-07-13 20:10:00,
2013-07-13 16:25:00,78.1,64.0,30.23,South,179,4.0,8.0,62,0.00,,,0.00,weatherlink.com 1.10,2013-07-13 20:25:00,
2013-07-13 16:40:00,77.8,61.0,30.24,SSE,147,3.0,8.0,57,0.00,,,0.00,weatherlink.com 1.10,2013-07-13 20:40:00,
2013-07-13 16:55:00,78.7,61.0,30.23,SSW,198,2.0,10.0,54,0.00,,,0.00,weatherlink.com 1.10,2013-07-13 20:55:00,
2013-07-13 17:10:00,78.8,65.0,30.23,SSE,165,4.0,11.0,62,0.00,,,0.00,weatherlink.com 1.10,2013-07-13 21:10:00,
2013-07-13 17:25:00,77.1,64.0,30.23,SSE,157,0.0,10.0,65,0.00,,,0.00,weatherlink.com 1.10,2013-07-13 21:25:00,
2013-07-13 17:40:00,76.9,65.0,30.23,ESE,105,7.0,12.0,67,0.00,,,0.00,weatherlink.com 1.10,2013-07-13 21:40:00,
2013-07-13 17:55:00,76.4,66.0,30.22,South,174,5.0,8.0,69,0.00,,,0.00,weatherlink.com 1.10,2013-07-13 21:55:00,
2013-07-13 18:10:00,75.9,65.0,30.22,South,171,4.0,9.0,70,0.00,,,0.00,weatherlink.com 1.10,2013-07-13 22:10:00,
2013-07-13 18:25:00,75.6,66.0,30.22,ENE,78,2.0,8.0,72,0.00,,,0.00,weatherlink.com 1.10,2013-07-13 22:25:00,
2013-07-13 18:40:00,75.2,65.0,30.23,South,172,2.0,7.0,71,0.00,,,0.00,weatherlink.com 1.10,2013-07-13 22:40:00,
2013-07-13 18:55:00,75.0,65.0,30.23,SE,132,0.0,6.0,71,0.00,,,0.00,weatherlink.com 1.10,2013-07-13 22:55:00,
2013-07-13 19:10:00,74.9,65.0,30.23,SE,139,0.0,7.0,71,0.00,,,0.00,weatherlink.com 1.10,2013-07-13 23:10:00,
2013-07-13 19:25:00,74.6,66.0,30.23,East,97,0.0,6.0,74,0.00,,,0.00,weatherlink.com 1.10,2013-07-13 23:25:00,
2013-07-13 19:40:00,74.4,66.0,30.23,ESE,123,4.0,5.0,74,0.00,,,0.00,weatherlink.com 1.10,2013-07-13 23:40:00,
2013-07-13 19:55:00,74.1,66.0,30.23,SE,146,1.0,5.0,75,0.00,,,0.00,weatherlink.com 1.10,2013-07-13 23:55:00,
2013-07-13 20:10:00,73.8,65.0,30.23,SE,136,0.0,4.0,74,0.00,,,0.00,weatherlink.com 1.10,2013-07-14 00:10:00,
2013-07-13 20:25:00,73.7,65.0,30.23,SE,136,0.0,2.0,74,0.00,,,0.00,weatherlink.com 1.10,2013-07-14 00:25:00,
2013-07-13 20:40:00,72.8,64.0,30.23,ESE,103,0.0,3.0,75,0.00,,,0.00,weatherlink.com 1.10,2013-07-14 00:40:00,
2013-07-13 20:55:00,72.3,65.0,30.23,ESE,103,0.0,1.0,77,0.00,,,0.00,weatherlink.com 1.10,2013-07-14 00:55:00,
2013-07-13 21:10:00,71.2,64.0,30.24,ESE,103,0.0,1.0,79,0.00,,,0.00,weatherlink.com 1.10,2013-07-14 01:10:00,
2013-07-13 21:25:00,69.6,64.0,30.23,ESE,103,0.0,1.0,81,0.00,,,0.00,weatherlink.com 1.10,2013-07-14 01:25:00,
2013-07-13 21:40:00,68.3,63.0,30.24,ESE,103,0.0,1.0,83,0.00,,,0.00,weatherlink.com 1.10,2013-07-14 01:40:00,
2013-07-13 21:55:00,67.4,62.0,30.24,ESE,103,0.0,1.0,84,0.00,,,0.00,weatherlink.com 1.10,2013-07-14 01:55:00,
2013-07-13 22:10:00,66.5,62.0,30.25,ESE,103,0.0,1.0,85,0.00,,,0.00,weatherlink.com 1.10,2013-07-14 02:10:00,
2013-07-13 22:25:00,65.6,61.0,30.25,ESE,103,0.0,1.0,85,0.00,,,0.00,weatherlink.com 1.10,2013-07-14 02:25:00,
2013-07-13 22:40:00,65.1,61.0,30.25,East,98,0.0,3.0,86,0.00,,,0.00,weatherlink.com 1.10,2013-07-14 02:40:00,
2013-07-13 22:55:00,64.6,60.0,30.25,East,98,0.0,1.0,86,0.00,,,0.00,weatherlink.com 1.10,2013-07-14 02:55:00,
2013-07-13 23:10:00,64.2,60.0,30.25,East,98,0.0,1.0,86,0.00,,,0.00,weatherlink.com 1.10,2013-07-14 03:10:00,
2013-07-13 23:25:00,64.5,60.0,30.26,East,98,0.0,1.0,86,0.00,,,0.00,weatherlink.com 1.10,2013-07-14 03:25:00,
2013-07-13 23:40:00,64.3,60.0,30.26,East,98,0.0,1.0,86,0.00,,,0.00,weatherlink.com 1.10,2013-07-14 03:40:00,
2013-07-13 23:55:00,64.4,60.0,30.26,East,98,0.0,3.0,86,0.00,,,0.00,weatherlink.com 1.10,2013-07-14 03:55:00,